{"data":{"norad_id":66413,"intl_designator":"2025-258B","name":"HULIANWANG DIGUI-97","alt_names":[],"object_type":"PAYLOAD","status":"ACTIVE","operator":null,"country":"PRC","launch_date":"2025-11-10","launch_site_code":"WSC","launch_vehicle":null,"mission":null,"orbit_class":"UNKNOWN","rcs_meters":null,"size_class":null,"mass_kg":null,"dimensions":null,"purposes":[],"wikipedia_slug":null,"has_3d_model":false,"image_url":null,"decayed_at":null,"tle_current":{"epoch":"2026-09-20T20:48:29.973312Z","epoch_age_seconds":96329,"freshness":"FRESH","line1":"1 66413U 25258B   26263.86701358 -.00000080  00000+0  94641-4 0  9995","line2":"2 66413  50.0023 312.6892 0000082  87.6299 272.4582 13.29330528 42455","mean_motion":13.29330528,"eccentricity":8.2e-6,"inclination_deg":50.0023,"raan_deg":312.6892,"arg_perigee_deg":87.6299,"mean_anomaly_deg":272.4582,"bstar":9.4641e-5,"rev_number":4245,"period_min":108.32520352681,"perigee_km":1149.2277534984,"apogee_km":1149.3512032926,"semimajor_km":7527.4264783955,"source":"CELESTRAK","updated_at":"2026-09-21T09:00:15.962875Z"}}}